Port Angeles, WA
on Sunday, January 6, 2013

Sunday
Previous Day Next Day
Daily Summary
 ActualAverageRecord
Temperature
Mean Temperature °F / °C °F / °C  
Max Temperature 44°F / 7°C 43°F / 6°C 52°F / 11°C (1981)
Min Temperature 35°F / 2°C 31°F / 0°C 17°F / -8°C (1973)
Degree Days
Heating Degree Days 26    
Moisture
Dew Point 37°F / 3°C   
Average Humidity 89    
Maximum Humidity 97    
Minimum Humidity 79    
Precipitation
Precipitation 0.00 in / 0.00 cm in / cm in / cm ()
Wind
Wind Speed 3 mph / 5 km/h   
Max Wind Speed 7 mph / 11 km/h   
Max Gust Speed mph / km/h   
Visibility 10 miles / 16 kilometers   
Events Rain   
Averages and records for this station are not official NWS values.
Key: T is trace of precipitation, MM is missing value
Source: NWS Daily Summary
Seasonal Weather Averages
Time(PST)TemperatureDew PointHumidity Pressure Visibility Wind DirectionWind SpeedGust SpeedPrecipitationEvents Conditions
12:53 AM 37.9°F / 3.3°C 36.0°F / 2.2°C 93% 30.12 in / 1019.7 hPa 10.0 miles / 16.1 kilometers WSW 4.6 mph / 7.4 km/h - N/A   Overcast
1:53 AM 37.0°F / 2.8°C 35.1°F / 1.7°C 93% 30.12 in / 1019.9 hPa 10.0 miles / 16.1 kilometers Calm Calm - N/A   Mostly Cloudy
2:53 AM 36.0°F / 2.2°C 34.0°F / 1.1°C 93% 30.12 in / 1020.0 hPa 10.0 miles / 16.1 kilometers SW 4.6 mph / 7.4 km/h - N/A   Partly Cloudy
3:53 AM 36.0°F / 2.2°C 34.0°F / 1.1°C 93% 30.12 in / 1019.9 hPa 10.0 miles / 16.1 kilometers SW 6.9 mph / 11.1 km/h - N/A   Partly Cloudy
4:53 AM 36.0°F / 2.2°C 34.0°F / 1.1°C 93% 30.12 in / 1020.0 hPa 10.0 miles / 16.1 kilometers SW 5.8 mph / 9.3 km/h - N/A   Partly Cloudy
5:53 AM 36.0°F / 2.2°C 34.0°F / 1.1°C 93% 30.11 in / 1019.6 hPa 10.0 miles / 16.1 kilometers WSW 6.9 mph / 11.1 km/h - N/A   Overcast
6:53 AM 35.1°F / 1.7°C 33.1°F / 0.6°C 92% 30.11 in / 1019.5 hPa 10.0 miles / 16.1 kilometers Variable 3.5 mph / 5.6 km/h - N/A   Partly Cloudy
7:53 AM 36.0°F / 2.2°C 34.0°F / 1.1°C 93% 30.12 in / 1019.7 hPa 10.0 miles / 16.1 kilometers SW 3.5 mph / 5.6 km/h - N/A   Overcast
8:53 AM 37.9°F / 3.3°C 35.1°F / 1.7°C 89% 30.11 in / 1019.6 hPa 10.0 miles / 16.1 kilometers WSW 5.8 mph / 9.3 km/h - N/A   Overcast
9:53 AM 39.0°F / 3.9°C 36.0°F / 2.2°C 89% 30.14 in / 1020.4 hPa 10.0 miles / 16.1 kilometers WSW 4.6 mph / 7.4 km/h - N/A   Overcast
10:12 AM 39.9°F / 4.4°C 36.0°F / 2.2°C 86% 30.13 in / 1020.2 hPa 10.0 miles / 16.1 kilometers WSW 3.5 mph / 5.6 km/h - N/A   Overcast
10:53 AM 43.0°F / 6.1°C 37.9°F / 3.3°C 82% 30.14 in / 1020.4 hPa 10.0 miles / 16.1 kilometers Calm Calm - N/A   Overcast
11:53 AM 44.1°F / 6.7°C 39.0°F / 3.9°C 82% 30.09 in / 1018.8 hPa 10.0 miles / 16.1 kilometers Calm Calm - N/A   Overcast
12:53 PM 44.1°F / 6.7°C 39.0°F / 3.9°C 82% 30.09 in / 1018.7 hPa 10.0 miles / 16.1 kilometers Calm Calm - N/A   Overcast
1:15 PM 44.1°F / 6.7°C 37.9°F / 3.3°C 79% 30.07 in / 1018.2 hPa 10.0 miles / 16.1 kilometers Calm Calm - N/A   Overcast
1:42 PM 44.1°F / 6.7°C 39.0°F / 3.9°C 82% 30.06 in / 1017.8 hPa 10.0 miles / 16.1 kilometers Calm Calm - N/A   Overcast
1:53 PM 44.1°F / 6.7°C 37.9°F / 3.3°C 79% 30.07 in / 1018.3 hPa 10.0 miles / 16.1 kilometers Calm Calm - N/A   Overcast
2:53 PM 44.1°F / 6.7°C 39.0°F / 3.9°C 82% 30.06 in / 1017.7 hPa 10.0 miles / 16.1 kilometers Calm Calm - N/A   Overcast
3:53 PM 43.0°F / 6.1°C 39.0°F / 3.9°C 86% 30.06 in / 1017.8 hPa 10.0 miles / 16.1 kilometers Calm Calm - N/A   Overcast
4:53 PM 41.0°F / 5.0°C 39.0°F / 3.9°C 93% 30.03 in / 1016.8 hPa 10.0 miles / 16.1 kilometers SSE 3.5 mph / 5.6 km/h - 0.00 in / 0.0 cm   Overcast
5:53 PM 41.0°F / 5.0°C 39.0°F / 3.9°C 93% 30.01 in / 1016.2 hPa 10.0 miles / 16.1 kilometers Calm Calm - N/A   Overcast
6:53 PM 39.9°F / 4.4°C 39.0°F / 3.9°C 97% 30.00 in / 1015.9 hPa 10.0 miles / 16.1 kilometers Calm Calm - N/A   Overcast
7:53 PM 39.9°F / 4.4°C 37.9°F / 3.3°C 93% 29.99 in / 1015.4 hPa 10.0 miles / 16.1 kilometers Calm Calm - 0.00 in / 0.0 cm   Overcast
8:53 PM 39.9°F / 4.4°C 37.9°F / 3.3°C 93% 29.96 in / 1014.5 hPa 10.0 miles / 16.1 kilometers Calm Calm - 0.00 in / 0.0 cm   Overcast
9:53 PM 39.9°F / 4.4°C 37.9°F / 3.3°C 93% 29.93 in / 1013.4 hPa 10.0 miles / 16.1 kilometers Calm Calm - N/A   Overcast
10:53 PM 39.9°F / 4.4°C 37.9°F / 3.3°C 93% 29.91 in / 1012.9 hPa 10.0 miles / 16.1 kilometers Calm Calm - 0.00 in / 0.0 cm Rain Light Rain
11:53 PM 39.9°F / 4.4°C 37.9°F / 3.3°C 93% 29.89 in / 1012.0 hPa 10.0 miles / 16.1 kilometers SSE 5.8 mph / 9.3 km/h - 0.00 in / 0.0 cm   Overcast
Moon Phase
Jan. 06 Jan. 11 Jan. 18 Jan. 26 Feb. 03
Sunrise:08:03 AM (PST) Moon Rise:02:14 AM (PST)1/6
Sunset:04:36 PM (PST) Moon Set:12:16 PM (PST)1/6

Copyright © 2014 The Weather Underground, Inc.